Change the Weather History Date:

Thursday, November 28, 2013

  Actual Average Record
Temperature  
Mean Temperature 26 °F -  
Max Temperature 35 °F 42 °F 67 °F (1990)
Min Temperature 17 °F 25 °F -7 °F (1938)
Degree Days  
Heating Degree Days 39    
Moisture  
Dew Point 9 °F    
Average Humidity 48    
Maximum Humidity 68    
Minimum Humidity 31    
Precipitation  
Precipitation 0.01 in - - ()
Sea Level Pressure  
Sea Level Pressure 30.05 in    
Wind  
Wind Speed 9 mph (West)    
Max Wind Speed 16 mph    
Max Gust Speed 28 mph    
Visibility 10 miles    
Events      
Averages and records for this station are not official NWS values.
T = Trace of Precipitation, MM = Missing Value Source: NWS Daily Summary

Daily Weather History Graph

Daily Weather History Graph

Search for Another Location

Airport or City:

Trip Planner

Search our weather history database for the weather conditions in past years. The results will help you decide how hot, cold, wet, or windy it might be!

Date:

Astronomy

Nov. 28, 2013 Rise Set
Actual Time 6:57 AM EST 4:16 PM EST
Civil Twilight 6:25 AM EST 4:48 PM EST
Nautical Twilight 5:50 AM EST 5:23 PM EST
Astronomical Twilight 5:16 AM EST 5:57 PM EST
Moon 1:50 AM EST (11/28) 1:30 PM EST (11/28)
Length of Visible Light 10h 22m
Length of Day
9h 19m
Waning Crescent, 22% of the Moon is Illuminated
Nov 28
Waning Crescent
Dec 2
New
Dec 9
First Quarter
Dec 17
Full
Dec 25
Last Quarter

Hourly Weather History & Observations

Time (EST) Temp. Windchill Dew Point Humidity Pressure Visibility Wind Dir Wind Speed Gust Speed Precip Events Conditions
12:15 AM - - - N/A% 29.50 in 10.0 mi NW 11.5 mph 19.6 mph N/A   Overcast
12:35 AM 35.6 °F 29.2 °F 23.0 °F 60% 29.52 in 10.0 mi WNW 8.1 mph 19.6 mph N/A   Overcast
12:55 AM 35.6 °F 30.7 °F 23.0 °F 60% 29.53 in 10.0 mi NW 5.8 mph - N/A   Overcast
1:15 AM 33.8 °F - 23.0 °F 65% 29.55 in 10.0 mi Calm Calm - N/A   Overcast
1:35 AM 35.6 °F 29.9 °F 24.8 °F 65% 29.57 in 10.0 mi WNW 6.9 mph - N/A   Mostly Cloudy
1:55 AM 35.6 °F 30.7 °F 23.0 °F 60% 29.58 in 10.0 mi West 5.8 mph - N/A   Overcast
2:15 AM 33.8 °F 26.4 °F 21.2 °F 60% 29.60 in 10.0 mi WNW 9.2 mph - N/A   Overcast
2:35 AM 33.8 °F 25.3 °F 19.4 °F 56% 29.61 in 10.0 mi WNW 11.5 mph 20.7 mph N/A   Overcast
2:55 AM 33.8 °F 24.8 °F 19.4 °F 56% 29.62 in 10.0 mi WNW 12.7 mph 19.6 mph N/A   Overcast
3:15 AM 33.8 °F 24.3 °F 19.4 °F 56% 29.64 in 10.0 mi WNW 13.8 mph 18.4 mph N/A   Overcast
3:35 AM 33.8 °F 24.3 °F 19.4 °F 56% 29.66 in 10.0 mi West 13.8 mph 23.0 mph N/A   Overcast
3:55 AM 32.0 °F 23.0 °F 17.6 °F 55% 29.68 in 10.0 mi West 11.5 mph 24.2 mph N/A   Overcast
4:15 AM 30.2 °F 19.3 °F 17.6 °F 60% 29.71 in 10.0 mi WSW 15.0 mph 23.0 mph N/A   Overcast
4:35 AM 30.2 °F 21.9 °F 15.8 °F 55% 29.72 in 10.0 mi West 9.2 mph 25.3 mph N/A   Overcast
4:55 AM 30.2 °F 21.3 °F 15.8 °F 55% 29.74 in 10.0 mi WSW 10.4 mph 17.3 mph N/A   Mostly Cloudy
5:15 AM 28.4 °F 18.0 °F 15.8 °F 59% 29.78 in 10.0 mi WSW 12.7 mph 18.4 mph N/A   Overcast
5:35 AM 28.4 °F 19.7 °F 15.8 °F 59% 29.81 in 10.0 mi West 9.2 mph 18.4 mph N/A   Overcast
5:55 AM 28.4 °F 18.0 °F 14.0 °F 55% 29.83 in 10.0 mi West 12.7 mph 18.4 mph 0.01 in   Overcast
6:15 AM 28.4 °F 20.4 °F 14.0 °F 55% 29.84 in 10.0 mi West 8.1 mph 16.1 mph N/A   Scattered Clouds
6:35 AM 26.6 °F 15.2 °F 14.0 °F 59% 29.86 in 10.0 mi West 13.8 mph 19.6 mph N/A   Scattered Clouds
6:55 AM 26.6 °F 15.7 °F 10.4 °F 51% 29.88 in 10.0 mi WNW 12.7 mph 26.5 mph N/A   Partly Cloudy
7:15 AM 26.6 °F 16.2 °F 10.4 °F 51% 29.90 in 10.0 mi West 11.5 mph 19.6 mph N/A   Partly Cloudy
7:35 AM 26.6 °F 15.7 °F 10.4 °F 51% 29.93 in 10.0 mi NW 12.7 mph 24.2 mph N/A   Clear
7:55 AM 26.6 °F 15.2 °F 8.6 °F 47% 29.95 in 10.0 mi WNW 13.8 mph 17.3 mph N/A   Clear
8:15 AM 26.6 °F 15.7 °F 8.6 °F 47% 29.97 in 10.0 mi West 12.7 mph 23.0 mph N/A   Clear
8:35 AM 26.6 °F 18.2 °F 8.6 °F 47% 29.99 in 10.0 mi West 8.1 mph 27.6 mph N/A   Clear
8:55 AM 26.6 °F 15.7 °F 8.6 °F 47% 30.02 in 10.0 mi NNW 12.7 mph 17.3 mph N/A   Clear
9:15 AM 26.6 °F 15.2 °F 6.8 °F 43% 30.03 in 10.0 mi WNW 13.8 mph 17.3 mph N/A   Clear
9:35 AM 26.6 °F 14.3 °F 6.8 °F 43% 30.05 in 10.0 mi WNW 16.1 mph 23.0 mph N/A   Clear
9:55 AM 26.6 °F 14.7 °F 8.6 °F 47% 30.07 in 10.0 mi West 15.0 mph 20.7 mph N/A   Clear
10:15 AM 26.6 °F 16.8 °F 6.8 °F 43% 30.07 in 10.0 mi NW 10.4 mph 21.9 mph N/A   Clear
10:35 AM 26.6 °F 15.2 °F 6.8 °F 43% 30.07 in 10.0 mi WNW 13.8 mph 20.7 mph N/A   Partly Cloudy
10:55 AM 28.4 °F 18.5 °F 6.8 °F 40% 30.09 in 10.0 mi West 11.5 mph 24.2 mph N/A   Mostly Cloudy
11:15 AM 26.6 °F 14.7 °F 6.8 °F 43% 30.10 in 10.0 mi NW 15.0 mph 21.9 mph N/A   Scattered Clouds
11:35 AM 28.4 °F 18.0 °F 6.8 °F 40% 30.11 in 10.0 mi West 12.7 mph 21.9 mph N/A   Partly Cloudy
11:55 AM 28.4 °F 18.5 °F 6.8 °F 40% 30.12 in 10.0 mi West 11.5 mph 24.2 mph N/A   Partly Cloudy
12:15 PM 26.6 °F 15.7 °F 3.2 °F 37% 30.13 in 10.0 mi West 12.7 mph 23.0 mph N/A   Partly Cloudy
12:35 PM 28.4 °F 18.0 °F 3.2 °F 34% 30.14 in 10.0 mi WNW 12.7 mph 23.0 mph N/A   Clear
12:55 PM 28.4 °F 18.5 °F 3.2 °F 34% 30.14 in 10.0 mi WNW 11.5 mph 25.3 mph N/A   Clear
1:15 PM 28.4 °F 16.6 °F 3.2 °F 34% 30.14 in 10.0 mi West 16.1 mph 23.0 mph N/A   Clear
1:35 PM 28.4 °F 17.5 °F 3.2 °F 34% 30.15 in 10.0 mi WNW 13.8 mph 24.2 mph N/A   Clear
1:55 PM 28.4 °F 17.0 °F 3.2 °F 34% 30.15 in 10.0 mi NW 15.0 mph 21.9 mph N/A   Clear
2:15 PM 28.4 °F 17.0 °F 1.4 °F 31% 30.16 in 10.0 mi WNW 15.0 mph 21.9 mph N/A   Clear
2:35 PM 28.4 °F 18.0 °F 1.4 °F 31% 30.17 in 10.0 mi NW 12.7 mph 23.0 mph N/A   Clear
2:55 PM 28.4 °F 16.6 °F 1.4 °F 31% 30.19 in 10.0 mi WNW 16.1 mph 21.9 mph N/A   Clear
3:15 PM 28.4 °F 19.1 °F 1.4 °F 31% 30.20 in 10.0 mi West 10.4 mph 19.6 mph N/A   Clear
3:35 PM 28.4 °F 20.4 °F 1.4 °F 31% 30.21 in 10.0 mi WNW 8.1 mph - N/A   Clear
3:55 PM 26.6 °F 19.1 °F 1.4 °F 34% 30.22 in 10.0 mi WNW 6.9 mph - N/A   Clear
4:15 PM 26.6 °F 18.2 °F 1.4 °F 34% 30.23 in 10.0 mi West 8.1 mph - N/A   Clear
4:35 PM 26.6 °F 18.2 °F 1.4 °F 34% 30.25 in 10.0 mi West 8.1 mph - N/A   Clear
4:55 PM 26.6 °F 21.2 °F 1.4 °F 34% 30.26 in 10.0 mi West 4.6 mph - N/A   Clear
5:15 PM 26.6 °F 21.2 °F 1.4 °F 34% 30.28 in 10.0 mi West 4.6 mph - N/A   Clear
5:35 PM 24.8 °F - 1.4 °F 36% 30.30 in 10.0 mi Calm Calm - N/A   Clear
5:55 PM 24.8 °F 20.5 °F 1.4 °F 36% 30.30 in 10.0 mi WNW 3.5 mph - N/A   Clear
6:15 PM 24.8 °F - 1.4 °F 36% 30.31 in 10.0 mi Calm Calm - N/A   Clear
6:35 PM 24.8 °F - 1.4 °F 36% 30.32 in 10.0 mi Calm Calm - N/A   Clear
6:55 PM 23.0 °F 17.0 °F 3.2 °F 43% 30.33 in 10.0 mi SSW 4.6 mph - N/A   Clear
7:15 PM 23.0 °F - 3.2 °F 43% 30.34 in 10.0 mi Calm Calm - N/A   Clear
7:35 PM 21.2 °F - 3.2 °F 46% 30.35 in 10.0 mi Calm Calm - N/A   Clear
7:55 PM 21.2 °F 16.4 °F 5.0 °F 50% 30.35 in 10.0 mi SW 3.5 mph - N/A   Clear
8:15 PM 21.2 °F 14.9 °F 5.0 °F 50% 30.36 in 10.0 mi SW 4.6 mph - N/A   Clear
8:35 PM 19.4 °F 12.8 °F 5.0 °F 54% 30.36 in 10.0 mi SSW 4.6 mph - N/A   Clear
8:55 PM 21.2 °F 16.4 °F 6.8 °F 54% 30.37 in 10.0 mi WSW 3.5 mph - N/A   Clear
9:15 PM 21.2 °F 13.6 °F 6.8 °F 54% 30.38 in 10.0 mi SSW 5.8 mph - N/A   Clear
9:35 PM 19.4 °F 12.8 °F 6.8 °F 58% 30.38 in 10.0 mi South 4.6 mph - N/A   Clear
9:55 PM 19.4 °F 11.5 °F 6.8 °F 58% 30.39 in 10.0 mi SSW 5.8 mph - N/A   Clear
10:15 PM 19.4 °F 11.5 °F 6.8 °F 58% 30.39 in 10.0 mi SSW 5.8 mph - N/A   Clear
10:35 PM 19.4 °F 14.3 °F 6.8 °F 58% 30.39 in 10.0 mi SSW 3.5 mph - N/A   Clear
10:55 PM 17.6 °F - 6.8 °F 63% 30.40 in 10.0 mi Calm Calm - N/A   Clear
11:15 PM 17.6 °F - 8.6 °F 68% 30.41 in 10.0 mi Calm Calm - N/A   Clear
11:35 PM 17.6 °F - 8.6 °F 68% 30.40 in 10.0 mi Calm Calm - N/A   Clear
11:55 PM 17.6 °F - 6.8 °F 63% 30.41 in 10.0 mi Calm Calm - N/A   Partly Cloudy